Time,TemperatureF,DewpointF,PressureIn,WindDirection,WindDirectionDegrees,WindSpeedMPH,WindSpeedGustMPH,Humidity,HourlyPrecipIn,Conditions,Clouds,dailyrainin,SoftwareType,DateUTC
2013-06-22 00:01:00,65.4,63.3,30.19,SW,226,0.0,1.0,93,0.00,,---,0.00,VWS V14.00,2013-06-22 04:01:00,
2013-06-22 00:06:00,65.4,63.3,30.19,SW,227,0.0,1.0,93,0.00,,---,0.00,VWS V14.00,2013-06-22 04:06:00,
2013-06-22 00:11:00,65.3,63.2,30.19,SW,227,0.0,0.0,93,0.00,,---,0.00,VWS V14.00,2013-06-22 04:11:00,
2013-06-22 00:16:00,65.2,63.1,30.19,SW,226,0.0,0.0,93,0.00,,---,0.00,VWS V14.00,2013-06-22 04:16:00,
2013-06-22 00:21:00,65.1,63.0,30.19,SW,226,0.0,0.0,93,0.00,,---,0.00,VWS V14.00,2013-06-22 04:21:00,
2013-06-22 00:26:00,65.0,62.9,30.18,SW,227,0.0,0.0,93,0.00,,---,0.00,VWS V14.00,2013-06-22 04:26:00,
2013-06-22 00:31:00,64.9,63.1,30.18,SW,227,0.0,0.0,94,0.00,,---,0.00,VWS V14.00,2013-06-22 04:31:00,
2013-06-22 00:36:00,64.7,62.9,30.18,SW,227,0.0,0.0,94,0.00,,---,0.00,VWS V14.00,2013-06-22 04:36:00,
2013-06-22 00:41:00,64.6,62.8,30.18,SW,226,0.0,0.0,94,0.00,,---,0.00,VWS V14.00,2013-06-22 04:41:00,
2013-06-22 00:46:00,64.5,62.7,30.17,SW,227,0.0,0.0,94,0.00,,---,0.00,VWS V14.00,2013-06-22 04:46:00,
2013-06-22 00:51:00,64.4,62.6,30.18,SW,227,0.0,0.0,94,0.00,,---,0.00,VWS V14.00,2013-06-22 04:51:00,
2013-06-22 00:56:00,64.4,62.9,30.18,SW,227,0.0,1.0,95,0.00,,---,0.00,VWS V14.00,2013-06-22 04:56:00,
2013-06-22 01:01:00,64.3,62.8,30.18,SW,226,0.0,1.0,95,0.00,,---,0.00,VWS V14.00,2013-06-22 05:01:00,
2013-06-22 01:06:00,64.3,62.8,30.17,SW,226,0.0,1.0,95,0.00,,---,0.00,VWS V14.00,2013-06-22 05:06:00,
2013-06-22 01:11:00,64.3,62.8,30.17,SW,226,0.0,0.0,95,0.00,,---,0.00,VWS V14.00,2013-06-22 05:11:00,
2013-06-22 01:16:00,64.2,62.7,30.17,SW,227,0.0,0.0,95,0.00,,---,0.00,VWS V14.00,2013-06-22 05:16:00,
2013-06-22 01:21:00,64.1,62.6,30.17,SW,226,0.0,0.0,95,0.00,,---,0.00,VWS V14.00,2013-06-22 05:21:00,
2013-06-22 01:26:00,64.1,62.6,30.17,SW,226,0.0,0.0,95,0.00,,---,0.00,VWS V14.00,2013-06-22 05:26:00,
2013-06-22 01:31:00,64.0,62.5,30.17,SW,227,0.0,0.0,95,0.00,,---,0.00,VWS V14.00,2013-06-22 05:31:00,
2013-06-22 01:36:00,64.0,62.5,30.17,SW,227,0.0,0.0,95,0.00,,---,0.00,VWS V14.00,2013-06-22 05:36:00,
2013-06-22 01:41:00,63.9,62.4,30.16,SW,227,0.0,0.0,95,0.00,,---,0.00,VWS V14.00,2013-06-22 05:41:00,
2013-06-22 01:46:00,63.8,62.3,30.16,SW,227,0.0,0.0,95,0.00,,---,0.00,VWS V14.00,2013-06-22 05:46:00,
2013-06-22 01:51:00,63.7,62.2,30.16,SW,226,0.0,0.0,95,0.00,,---,0.00,VWS V14.00,2013-06-22 05:51:00,
2013-06-22 01:56:00,63.6,62.2,30.16,SW,227,0.0,0.0,95,0.00,,---,0.00,VWS V14.00,2013-06-22 05:56:00,
2013-06-22 02:01:00,63.5,62.0,30.16,SW,227,0.0,0.0,95,0.00,,---,0.00,VWS V14.00,2013-06-22 06:01:00,
2013-06-22 02:06:00,63.4,62.0,30.16,SW,227,0.0,0.0,95,0.00,,---,0.00,VWS V14.00,2013-06-22 06:06:00,
2013-06-22 02:11:00,63.2,61.8,30.16,SW,226,0.0,0.0,95,0.00,,---,0.00,VWS V14.00,2013-06-22 06:11:00,
2013-06-22 02:16:00,63.0,61.5,30.16,SW,227,0.0,0.0,95,0.00,,---,0.00,VWS V14.00,2013-06-22 06:16:00,
2013-06-22 02:21:00,63.0,61.5,30.16,SW,227,0.0,0.0,95,0.00,,---,0.00,VWS V14.00,2013-06-22 06:21:00,
2013-06-22 02:26:00,62.9,61.8,30.16,SW,227,0.0,0.0,96,0.00,,---,0.00,VWS V14.00,2013-06-22 06:26:00,
2013-06-22 02:31:00,62.9,61.8,30.16,SW,226,0.0,0.0,96,0.00,,---,0.00,VWS V14.00,2013-06-22 06:31:00,
2013-06-22 02:36:00,62.9,61.8,30.16,SW,226,0.0,0.0,96,0.00,,---,0.00,VWS V14.00,2013-06-22 06:36:00,
2013-06-22 02:41:00,62.9,61.8,30.16,SW,227,0.0,0.0,96,0.00,,---,0.00,VWS V14.00,2013-06-22 06:41:00,
2013-06-22 02:45:00,62.9,61.8,30.16,SW,227,0.0,0.0,96,0.00,,---,0.00,VWS V14.00,2013-06-22 06:45:00,
2013-06-22 02:50:00,62.8,61.7,30.16,SW,227,0.0,0.0,96,0.00,,---,0.00,VWS V14.00,2013-06-22 06:50:00,
2013-06-22 02:55:00,62.8,61.7,30.16,SW,226,0.0,0.0,96,0.00,,---,0.00,VWS V14.00,2013-06-22 06:55:00,
2013-06-22 03:00:00,62.7,61.5,30.15,SW,226,0.0,0.0,96,0.00,,---,0.00,VWS V14.00,2013-06-22 07:00:00,
2013-06-22 03:05:00,62.6,61.5,30.15,SW,227,0.0,0.0,96,0.00,,---,0.00,VWS V14.00,2013-06-22 07:05:00,
2013-06-22 03:10:00,62.5,61.3,30.15,SW,227,0.0,0.0,96,0.00,,---,0.00,VWS V14.00,2013-06-22 07:10:00,
2013-06-22 03:15:00,62.5,61.3,30.15,SW,227,0.0,0.0,96,0.00,,---,0.00,VWS V14.00,2013-06-22 07:15:00,
2013-06-22 03:20:00,62.4,61.2,30.15,SW,226,0.0,0.0,96,0.00,,---,0.00,VWS V14.00,2013-06-22 07:20:00,
2013-06-22 03:25:00,62.3,61.2,30.15,SW,226,0.0,0.0,96,0.00,,---,0.00,VWS V14.00,2013-06-22 07:25:00,
2013-06-22 03:30:00,62.2,61.0,30.15,SW,227,0.0,0.0,96,0.00,,---,0.00,VWS V14.00,2013-06-22 07:30:00,
2013-06-22 03:35:00,62.1,61.0,30.15,SW,226,0.0,0.0,96,0.00,,---,0.00,VWS V14.00,2013-06-22 07:35:00,
2013-06-22 03:40:00,62.1,61.0,30.15,SW,226,0.0,0.0,96,0.00,,---,0.00,VWS V14.00,2013-06-22 07:40:00,
2013-06-22 03:45:00,62.0,60.8,30.15,SW,227,0.0,0.0,96,0.00,,---,0.00,VWS V14.00,2013-06-22 07:45:00,
2013-06-22 03:50:00,62.0,60.8,30.15,SW,226,0.0,0.0,96,0.00,,---,0.00,VWS V14.00,2013-06-22 07:50:00,
2013-06-22 03:55:00,61.8,60.7,30.15,SW,227,0.0,0.0,96,0.00,,---,0.00,VWS V14.00,2013-06-22 07:55:00,
2013-06-22 04:00:00,61.8,60.7,30.16,SW,227,0.0,0.0,96,0.00,,---,0.00,VWS V14.00,2013-06-22 08:00:00,
2013-06-22 04:05:00,61.6,60.5,30.16,SW,227,0.0,0.0,96,0.00,,---,0.00,VWS V14.00,2013-06-22 08:05:00,
2013-06-22 04:10:00,61.6,60.5,30.17,SW,227,0.0,0.0,96,0.00,,---,0.00,VWS V14.00,2013-06-22 08:10:00,
2013-06-22 04:15:00,61.5,60.3,30.17,SW,227,0.0,0.0,96,0.00,,---,0.00,VWS V14.00,2013-06-22 08:15:00,
2013-06-22 04:20:00,61.4,60.5,30.18,SW,227,0.0,0.0,97,0.00,,---,0.00,VWS V14.00,2013-06-22 08:20:00,
2013-06-22 04:25:00,61.4,60.5,30.18,SW,227,0.0,0.0,97,0.00,,---,0.00,VWS V14.00,2013-06-22 08:25:00,
2013-06-22 04:30:00,61.5,60.6,30.18,SW,226,0.0,0.0,97,0.00,,---,0.00,VWS V14.00,2013-06-22 08:30:00,
2013-06-22 04:35:00,61.6,60.7,30.18,SW,227,0.0,0.0,97,0.00,,---,0.00,VWS V14.00,2013-06-22 08:35:00,
2013-06-22 04:40:00,61.6,60.7,30.17,SW,227,0.0,0.0,97,0.00,,---,0.00,VWS V14.00,2013-06-22 08:40:00,
2013-06-22 04:45:00,61.6,60.7,30.17,SW,227,0.0,0.0,97,0.00,,---,0.00,VWS V14.00,2013-06-22 08:45:00,
2013-06-22 04:50:00,61.6,60.7,30.17,SW,227,0.0,0.0,97,0.00,,---,0.00,VWS V14.00,2013-06-22 08:50:00,
2013-06-22 04:55:00,61.7,60.8,30.17,SW,226,0.0,1.0,97,0.00,,---,0.00,VWS V14.00,2013-06-22 08:55:00,
2013-06-22 05:00:00,61.8,60.9,30.17,SW,227,0.0,1.0,97,0.00,,---,0.00,VWS V14.00,2013-06-22 09:00:00,
2013-06-22 05:05:00,61.8,60.9,30.17,SW,227,0.0,1.0,97,0.00,,---,0.00,VWS V14.00,2013-06-22 09:05:00,
2013-06-22 05:10:00,61.8,60.9,30.18,SW,227,0.0,0.0,97,0.00,,---,0.00,VWS V14.00,2013-06-22 09:10:00,
2013-06-22 05:15:00,61.7,60.8,30.18,SW,227,0.0,0.0,97,0.00,,---,0.00,VWS V14.00,2013-06-22 09:15:00,
2013-06-22 05:20:00,61.7,60.8,30.18,SW,227,0.0,0.0,97,0.00,,---,0.00,VWS V14.00,2013-06-22 09:20:00,
2013-06-22 05:25:00,61.6,60.7,30.17,SW,227,0.0,0.0,97,0.00,,---,0.00,VWS V14.00,2013-06-22 09:25:00,
2013-06-22 05:30:00,61.6,60.7,30.17,SW,226,0.0,0.0,97,0.00,,---,0.00,VWS V14.00,2013-06-22 09:30:00,
2013-06-22 05:35:00,61.6,60.7,30.17,SW,227,0.0,1.0,97,0.00,,---,0.00,VWS V14.00,2013-06-22 09:35:00,
2013-06-22 05:40:00,61.6,61.0,30.17,SW,226,0.0,0.0,98,0.00,,---,0.00,VWS V14.00,2013-06-22 09:40:00,
2013-06-22 05:45:00,61.5,60.9,30.17,SW,226,0.0,0.0,98,0.00,,---,0.00,VWS V14.00,2013-06-22 09:45:00,
2013-06-22 05:50:00,61.6,61.0,30.17,SW,226,0.0,2.0,98,0.00,,---,0.00,VWS V14.00,2013-06-22 09:50:00,
2013-06-22 05:55:00,61.6,61.0,30.17,WSW,242,0.0,3.0,98,0.00,,---,0.00,VWS V14.00,2013-06-22 09:55:00,
2013-06-22 06:00:00,61.7,61.1,30.17,WSW,242,0.0,3.0,98,0.00,,---,0.00,VWS V14.00,2013-06-22 10:00:00,
2013-06-22 06:05:00,61.7,61.1,30.18,WSW,242,0.0,3.0,98,0.00,,---,0.00,VWS V14.00,2013-06-22 10:05:00,
2013-06-22 06:10:00,61.7,61.1,30.18,WSW,242,0.0,0.0,98,0.00,,---,0.00,VWS V14.00,2013-06-22 10:10:00,
2013-06-22 06:15:00,61.8,61.2,30.18,WSW,242,0.0,0.0,98,0.00,,---,0.00,VWS V14.00,2013-06-22 10:15:00,
2013-06-22 06:20:00,61.8,61.2,30.18,WSW,242,0.0,0.0,98,0.00,,---,0.00,VWS V14.00,2013-06-22 10:20:00,
2013-06-22 06:25:00,61.8,61.2,30.18,WSW,237,0.0,2.0,98,0.00,,---,0.00,VWS V14.00,2013-06-22 10:25:00,
2013-06-22 06:30:00,61.8,61.2,30.18,WSW,238,1.0,2.0,98,0.00,,---,0.00,VWS V14.00,2013-06-22 10:30:00,
2013-06-22 06:35:00,61.8,61.2,30.17,WSW,238,0.0,2.0,98,0.00,,---,0.00,VWS V14.00,2013-06-22 10:35:00,
2013-06-22 06:40:00,61.7,61.1,30.17,WSW,237,0.0,1.0,98,0.00,,---,0.00,VWS V14.00,2013-06-22 10:40:00,
2013-06-22 06:45:00,61.7,61.1,30.18,WSW,237,0.0,1.0,98,0.00,,---,0.00,VWS V14.00,2013-06-22 10:45:00,
2013-06-22 06:50:00,61.7,61.1,30.18,WSW,238,0.0,1.0,98,0.00,,---,0.00,VWS V14.00,2013-06-22 10:50:00,
2013-06-22 06:55:00,61.7,61.1,30.18,WSW,238,0.0,1.0,98,0.00,,---,0.00,VWS V14.00,2013-06-22 10:55:00,
2013-06-22 07:00:00,61.7,61.1,30.18,WSW,238,0.0,1.0,98,0.00,,---,0.00,VWS V14.00,2013-06-22 11:00:00,
2013-06-22 07:05:00,61.7,61.1,30.19,WSW,238,0.0,1.0,98,0.00,,---,0.00,VWS V14.00,2013-06-22 11:05:00,
2013-06-22 07:10:00,61.7,61.1,30.19,WSW,238,0.0,0.0,98,0.00,,---,0.00,VWS V14.00,2013-06-22 11:10:00,
2013-06-22 07:15:00,61.7,61.1,30.19,WSW,238,0.0,0.0,98,0.00,,---,0.00,VWS V14.00,2013-06-22 11:15:00,
2013-06-22 07:20:00,61.8,61.2,30.19,West,259,0.0,1.0,98,0.00,,---,0.00,VWS V14.00,2013-06-22 11:20:00,
2013-06-22 07:25:00,61.7,61.1,30.19,West,260,0.0,1.0,98,0.00,,---,0.00,VWS V14.00,2013-06-22 11:25:00,
2013-06-22 07:30:00,61.8,61.2,30.20,West,260,0.0,1.0,98,0.00,,---,0.00,VWS V14.00,2013-06-22 11:30:00,
2013-06-22 07:35:00,61.8,61.2,30.20,West,260,0.0,1.0,98,0.00,,---,0.00,VWS V14.00,2013-06-22 11:35:00,
2013-06-22 07:40:00,61.8,61.2,30.21,West,260,0.0,0.0,98,0.00,,---,0.00,VWS V14.00,2013-06-22 11:40:00,
2013-06-22 07:45:00,61.9,61.3,30.21,West,260,0.0,0.0,98,0.00,,---,0.00,VWS V14.00,2013-06-22 11:45:00,
2013-06-22 07:50:00,61.9,61.3,30.21,West,260,0.0,0.0,98,0.00,,---,0.00,VWS V14.00,2013-06-22 11:50:00,
2013-06-22 07:55:00,62.1,61.5,30.21,West,260,0.0,0.0,98,0.00,,---,0.00,VWS V14.00,2013-06-22 11:55:00,
2013-06-22 08:00:00,62.1,61.5,30.22,West,265,0.0,2.0,98,0.00,,---,0.00,VWS V14.00,2013-06-22 12:00:00,
2013-06-22 08:05:00,62.1,61.5,30.22,West,265,0.0,2.0,98,0.00,,---,0.00,VWS V14.00,2013-06-22 12:05:00,
2013-06-22 08:10:00,62.1,61.5,30.23,East,84,0.0,0.0,98,0.00,,---,0.00,VWS V14.00,2013-06-22 12:10:00,
2013-06-22 08:15:00,62.1,61.5,30.23,East,84,0.0,0.0,98,0.00,,---,0.00,VWS V14.00,2013-06-22 12:15:00,
2013-06-22 08:20:00,62.3,62.0,30.23,East,85,0.0,0.0,99,0.00,,---,0.00,VWS V14.00,2013-06-22 12:20:00,
2013-06-22 08:25:00,62.5,61.9,30.23,East,95,0.0,2.0,98,0.00,,---,0.00,VWS V14.00,2013-06-22 12:25:00,
2013-06-22 08:30:00,62.8,62.5,30.23,South,173,0.0,3.0,99,0.00,,---,0.00,VWS V14.00,2013-06-22 12:30:00,
2013-06-22 08:35:00,62.6,62.0,30.23,South,173,0.0,3.0,98,0.00,,---,0.00,VWS V14.00,2013-06-22 12:35:00,
2013-06-22 08:40:00,62.7,62.1,30.23,South,173,0.0,0.0,98,0.00,,---,0.00,VWS V14.00,2013-06-22 12:40:00,
2013-06-22 08:45:00,62.8,62.2,30.23,South,173,0.0,0.0,98,0.00,,---,0.00,VWS V14.00,2013-06-22 12:45:00,
2013-06-22 08:50:00,63.0,62.7,30.23,South,172,0.0,0.0,99,0.00,,---,0.00,VWS V14.00,2013-06-22 12:50:00,
2013-06-22 08:55:00,63.3,63.0,30.23,South,172,0.0,0.0,99,0.00,,---,0.00,VWS V14.00,2013-06-22 12:55:00,
2013-06-22 09:00:00,63.5,63.5,30.22,South,172,0.0,0.0,100,0.00,,---,0.00,VWS V14.00,2013-06-22 13:00:00,
2013-06-22 09:05:00,63.7,63.4,30.22,South,173,0.0,0.0,99,0.00,,---,0.00,VWS V14.00,2013-06-22 13:05:00,
2013-06-22 09:10:00,64.0,63.7,30.23,South,173,0.0,0.0,99,0.00,,---,0.00,VWS V14.00,2013-06-22 13:10:00,
2013-06-22 09:15:00,64.0,63.4,30.23,SSE,167,0.0,0.0,98,0.00,,---,0.00,VWS V14.00,2013-06-22 13:15:00,
2013-06-22 09:20:00,64.5,63.9,30.23,SSE,167,0.0,1.0,98,0.00,,---,0.00,VWS V14.00,2013-06-22 13:20:00,
2013-06-22 09:25:00,64.7,64.1,30.23,SSE,167,0.0,1.0,98,0.00,,---,0.00,VWS V14.00,2013-06-22 13:25:00,
2013-06-22 09:30:00,65.1,63.9,30.23,SSE,167,0.0,1.0,96,0.00,,---,0.00,VWS V14.00,2013-06-22 13:30:00,
2013-06-22 09:35:00,65.7,64.2,30.23,SSE,167,0.0,1.0,95,0.00,,---,0.00,VWS V14.00,2013-06-22 13:35:00,
2013-06-22 09:40:00,66.3,64.5,30.23,SSE,167,0.0,0.0,94,0.00,,---,0.00,VWS V14.00,2013-06-22 13:40:00,
2013-06-22 09:45:00,66.6,64.2,30.23,SSE,167,0.0,1.0,92,0.00,,---,0.00,VWS V14.00,2013-06-22 13:45:00,
2013-06-22 09:50:00,67.0,64.0,30.23,SSE,167,0.0,1.0,90,0.00,,---,0.00,VWS V14.00,2013-06-22 13:50:00,
2013-06-22 09:55:00,67.6,64.6,30.22,South,178,0.0,3.0,90,0.00,,---,0.00,VWS V14.00,2013-06-22 13:55:00,
2013-06-22 10:00:00,68.2,64.8,30.22,South,173,3.0,4.0,89,0.00,,---,0.00,VWS V14.00,2013-06-22 14:00:00,
2013-06-22 10:05:00,68.1,64.1,30.22,SE,126,0.0,7.0,87,0.00,,---,0.00,VWS V14.00,2013-06-22 14:05:00,
2013-06-22 10:10:00,68.4,64.4,30.22,SE,127,0.0,1.0,87,0.00,,---,0.00,VWS V14.00,2013-06-22 14:10:00,
2013-06-22 10:15:00,68.8,65.1,30.21,SSE,148,0.0,1.0,88,0.00,,---,0.00,VWS V14.00,2013-06-22 14:15:00,
2013-06-22 10:20:00,69.4,65.0,30.21,SSE,159,0.0,1.0,86,0.00,,---,0.00,VWS V14.00,2013-06-22 14:20:00,
2013-06-22 10:25:00,70.2,66.2,30.20,SSE,159,0.0,1.0,87,0.00,,---,0.00,VWS V14.00,2013-06-22 14:25:00,
2013-06-22 10:30:00,70.6,65.2,30.21,East,96,1.0,2.0,83,0.00,,---,0.00,VWS V14.00,2013-06-22 14:30:00,
2013-06-22 10:35:00,71.1,65.3,30.21,ESE,110,0.0,2.0,82,0.00,,---,0.00,VWS V14.00,2013-06-22 14:35:00,
2013-06-22 10:40:00,71.6,65.8,30.20,ENE,74,0.0,1.0,82,0.00,,---,0.00,VWS V14.00,2013-06-22 14:40:00,
2013-06-22 10:45:00,72.4,65.9,30.21,NE,34,0.0,1.0,80,0.00,,---,0.00,VWS V14.00,2013-06-22 14:45:00,
2013-06-22 10:50:00,73.0,66.1,30.21,SSE,160,0.0,1.0,79,0.00,,---,0.00,VWS V14.00,2013-06-22 14:50:00,
2013-06-22 10:55:00,73.5,64.7,30.20,South,173,0.0,3.0,74,0.00,,---,0.00,VWS V14.00,2013-06-22 14:55:00,
2013-06-22 11:00:00,73.0,65.4,30.21,South,173,0.0,3.0,77,0.00,,---,0.00,VWS V14.00,2013-06-22 15:00:00,
2013-06-22 11:05:00,72.3,64.7,30.21,South,173,0.0,3.0,77,0.00,,---,0.00,VWS V14.00,2013-06-22 15:05:00,
2013-06-22 11:10:00,72.2,65.7,30.21,South,189,0.0,0.0,80,0.00,,---,0.00,VWS V14.00,2013-06-22 15:10:00,
2013-06-22 11:15:00,72.5,66.7,30.20,South,188,0.0,1.0,82,0.00,,---,0.00,VWS V14.00,2013-06-22 15:15:00,
2013-06-22 11:20:00,72.9,66.4,30.20,South,188,0.0,1.0,80,0.00,,---,0.00,VWS V14.00,2013-06-22 15:20:00,
2013-06-22 11:25:00,73.3,66.4,30.20,South,186,0.0,3.0,79,0.00,,---,0.00,VWS V14.00,2013-06-22 15:25:00,
2013-06-22 11:30:00,73.4,66.1,30.20,South,186,0.0,3.0,78,0.00,,---,0.00,VWS V14.00,2013-06-22 15:30:00,
2013-06-22 11:35:00,73.7,66.1,30.20,SSW,207,0.0,3.0,77,0.00,,---,0.00,VWS V14.00,2013-06-22 15:35:00,
2013-06-22 11:40:00,73.9,66.6,30.20,SSW,207,0.0,0.0,78,0.00,,---,0.00,VWS V14.00,2013-06-22 15:40:00,
2013-06-22 11:45:00,74.1,66.8,30.20,SSW,208,0.0,0.0,78,0.00,,---,0.00,VWS V14.00,2013-06-22 15:45:00,
2013-06-22 11:50:00,74.0,66.3,30.21,SSW,207,0.0,1.0,77,0.00,,---,0.00,VWS V14.00,2013-06-22 15:50:00,
2013-06-22 11:55:00,74.0,66.3,30.21,SSW,207,0.0,1.0,77,0.00,,---,0.00,VWS V14.00,2013-06-22 15:55:00,
2013-06-22 12:00:00,74.2,65.4,30.21,SSW,205,2.0,2.0,74,0.00,,---,0.00,VWS V14.00,2013-06-22 16:00:00,
2013-06-22 12:05:00,74.6,67.7,30.20,SSW,203,0.0,2.0,79,0.00,,---,0.00,VWS V14.00,2013-06-22 16:05:00,
2013-06-22 12:10:00,74.4,67.5,30.21,SSW,204,0.0,0.0,79,0.00,,---,0.00,VWS V14.00,2013-06-22 16:10:00,
2013-06-22 12:15:00,74.8,66.7,30.20,SSW,204,0.0,1.0,76,0.00,,---,0.00,VWS V14.00,2013-06-22 16:15:00,
2013-06-22 12:20:00,75.6,67.5,30.20,SSW,213,0.0,2.0,76,0.00,,---,0.00,VWS V14.00,2013-06-22 16:20:00,
2013-06-22 12:25:00,75.8,66.1,30.20,SW,216,0.0,2.0,72,0.00,,---,0.00,VWS V14.00,2013-06-22 16:25:00,
2013-06-22 12:30:00,76.3,67.4,30.19,SW,215,0.0,2.0,74,0.00,,---,0.00,VWS V14.00,2013-06-22 16:30:00,
2013-06-22 12:35:00,76.7,66.2,30.19,SW,228,0.0,4.0,70,0.00,,---,0.00,VWS V14.00,2013-06-22 16:35:00,
2013-06-22 12:40:00,77.2,67.1,30.19,SW,219,0.0,2.0,71,0.00,,---,0.00,VWS V14.00,2013-06-22 16:40:00,
2013-06-22 12:45:00,77.5,66.9,30.19,SW,217,0.0,2.0,70,0.00,,---,0.00,VWS V14.00,2013-06-22 16:45:00,
2013-06-22 12:50:00,78.1,67.9,30.18,SSW,203,0.0,2.0,71,0.00,,---,0.00,VWS V14.00,2013-06-22 16:50:00,
2013-06-22 12:55:00,78.4,67.8,30.18,SSW,194,0.0,2.0,70,0.00,,---,0.00,VWS V14.00,2013-06-22 16:55:00,
2013-06-22 13:00:00,78.7,67.3,30.18,NNW,332,0.0,4.0,68,0.00,,---,0.00,VWS V14.00,2013-06-22 17:00:00,
2013-06-22 13:05:00,78.7,65.1,30.18,West,260,0.0,4.0,63,0.00,,---,0.00,VWS V14.00,2013-06-22 17:05:00,
2013-06-22 13:10:00,78.9,66.2,30.18,SW,222,0.0,2.0,65,0.00,,---,0.00,VWS V14.00,2013-06-22 17:10:00,
2013-06-22 13:15:00,79.0,67.6,30.18,SW,222,0.0,2.0,68,0.00,,---,0.00,VWS V14.00,2013-06-22 17:15:00,
2013-06-22 13:20:00,79.1,66.8,30.18,SSE,148,0.0,2.0,66,0.00,,---,0.00,VWS V14.00,2013-06-22 17:20:00,
2013-06-22 13:25:00,79.0,67.1,30.18,SSE,148,0.0,2.0,67,0.00,,---,0.00,VWS V14.00,2013-06-22 17:25:00,
2013-06-22 13:30:00,78.7,66.8,30.18,SW,235,0.0,2.0,67,0.00,,---,0.00,VWS V14.00,2013-06-22 17:30:00,
2013-06-22 13:35:00,78.4,65.2,30.18,SW,236,0.0,2.0,64,0.00,,---,0.00,VWS V14.00,2013-06-22 17:35:00,
2013-06-22 13:40:00,78.6,65.9,30.17,ESE,123,0.0,1.0,65,0.00,,---,0.00,VWS V14.00,2013-06-22 17:40:00,
2013-06-22 13:45:00,79.1,68.1,30.17,SSE,163,0.0,1.0,69,0.00,,---,0.00,VWS V14.00,2013-06-22 17:45:00,
2013-06-22 13:50:00,79.7,68.2,30.17,SSE,158,0.0,2.0,68,0.00,,---,0.00,VWS V14.00,2013-06-22 17:50:00,
2013-06-22 13:55:00,80.3,68.3,30.16,South,176,0.0,4.0,67,0.00,,---,0.00,VWS V14.00,2013-06-22 17:55:00,
2013-06-22 14:00:00,80.8,67.9,30.15,SSE,167,2.0,5.0,65,0.00,,---,0.00,VWS V14.00,2013-06-22 18:00:00,
2013-06-22 14:05:00,81.0,66.8,30.16,SSE,167,1.0,5.0,62,0.00,,---,0.00,VWS V14.00,2013-06-22 18:05:00,
2013-06-22 14:10:00,80.7,65.5,30.16,SSE,165,0.0,1.0,60,0.00,,---,0.00,VWS V14.00,2013-06-22 18:10:00,
2013-06-22 14:15:00,80.5,65.3,30.15,SSE,166,0.0,3.0,60,0.00,,---,0.00,VWS V14.00,2013-06-22 18:15:00,
2013-06-22 14:20:00,80.5,68.1,30.15,SSE,166,0.0,3.0,66,0.00,,---,0.00,VWS V14.00,2013-06-22 18:20:00,
2013-06-22 14:25:00,80.6,65.4,30.15,SSE,166,0.0,3.0,60,0.00,,---,0.00,VWS V14.00,2013-06-22 18:25:00,
2013-06-22 14:30:00,81.0,66.8,30.15,SW,236,0.0,3.0,62,0.00,,---,0.00,VWS V14.00,2013-06-22 18:30:00,
2013-06-22 14:35:00,81.2,66.0,30.15,SW,233,0.0,3.0,60,0.00,,---,0.00,VWS V14.00,2013-06-22 18:35:00,
2013-06-22 14:40:00,81.1,65.4,30.15,SW,233,0.0,1.0,59,0.00,,---,0.00,VWS V14.00,2013-06-22 18:40:00,
2013-06-22 14:45:00,81.2,67.9,30.14,WSW,239,0.0,2.0,64,0.00,,---,0.00,VWS V14.00,2013-06-22 18:45:00,
2013-06-22 14:50:00,81.2,68.3,30.14,WSW,244,0.0,2.0,65,0.00,,---,0.00,VWS V14.00,2013-06-22 18:50:00,
2013-06-22 14:55:00,81.2,64.5,30.14,WSW,245,0.0,2.0,57,0.00,,---,0.00,VWS V14.00,2013-06-22 18:55:00,
2013-06-22 15:00:00,81.5,65.3,30.14,WSW,246,0.0,2.0,58,0.00,,---,0.00,VWS V14.00,2013-06-22 19:00:00,
2013-06-22 15:05:00,82.0,64.8,30.14,WSW,245,0.0,2.0,56,0.00,,---,0.00,VWS V14.00,2013-06-22 19:05:00,
2013-06-22 15:10:00,82.1,67.8,30.13,SW,214,0.0,0.0,62,0.00,,---,0.00,VWS V14.00,2013-06-22 19:10:00,
2013-06-22 15:15:00,82.1,64.9,30.13,SSE,167,0.0,5.0,56,0.00,,---,0.00,VWS V14.00,2013-06-22 19:15:00,
2013-06-22 15:20:00,82.3,67.0,30.13,SSE,167,0.0,5.0,60,0.00,,---,0.00,VWS V14.00,2013-06-22 19:20:00,
2013-06-22 15:25:00,82.5,63.7,30.12,West,274,0.0,5.0,53,0.00,,---,0.00,VWS V14.00,2013-06-22 19:25:00,
2013-06-22 15:30:00,82.7,63.3,30.12,WNW,288,0.0,5.0,52,0.00,,---,0.00,VWS V14.00,2013-06-22 19:30:00,
2013-06-22 15:35:00,83.0,65.7,30.13,NW,314,0.0,5.0,56,0.00,,---,0.00,VWS V14.00,2013-06-22 19:35:00,
2013-06-22 15:40:00,83.4,67.1,30.12,North,350,0.0,5.0,58,0.00,,---,0.00,VWS V14.00,2013-06-22 19:40:00,
2013-06-22 15:45:00,83.4,66.6,30.12,South,171,0.0,5.0,57,0.00,,---,0.00,VWS V14.00,2013-06-22 19:45:00,
2013-06-22 15:50:00,83.3,65.5,30.11,SE,131,0.0,5.0,55,0.00,,---,0.00,VWS V14.00,2013-06-22 19:50:00,
2013-06-22 15:55:00,83.3,64.4,30.11,North,350,1.0,5.0,53,0.00,,---,0.00,VWS V14.00,2013-06-22 19:55:00,
2013-06-22 16:00:00,83.5,64.6,30.10,NW,319,0.0,5.0,53,0.00,,---,0.00,VWS V14.00,2013-06-22 20:00:00,
2013-06-22 16:05:00,83.7,65.8,30.10,NW,320,0.0,5.0,55,0.00,,---,0.00,VWS V14.00,2013-06-22 20:05:00,
2013-06-22 16:10:00,83.8,67.5,30.09,NW,320,0.0,0.0,58,0.00,,---,0.00,VWS V14.00,2013-06-22 20:10:00,
2013-06-22 16:15:00,84.0,67.1,30.09,NW,319,1.0,1.0,57,0.00,,---,0.00,VWS V14.00,2013-06-22 20:15:00,
2013-06-22 16:20:00,83.9,64.9,30.09,NW,319,0.0,2.0,53,0.00,,---,0.00,VWS V14.00,2013-06-22 20:20:00,
2013-06-22 16:25:00,83.9,66.5,30.09,NW,319,0.0,2.0,56,0.00,,---,0.00,VWS V14.00,2013-06-22 20:25:00,
2013-06-22 16:30:00,83.8,65.9,30.09,NW,318,0.0,2.0,55,0.00,,---,0.00,VWS V14.00,2013-06-22 20:30:00,
2013-06-22 16:35:00,83.8,67.5,30.09,East,80,2.0,2.0,58,0.00,,---,0.00,VWS V14.00,2013-06-22 20:35:00,
2013-06-22 16:40:00,83.5,64.6,30.09,South,178,0.0,0.0,53,0.00,,---,0.00,VWS V14.00,2013-06-22 20:40:00,
2013-06-22 16:45:00,83.5,66.2,30.08,South,177,0.0,1.0,56,0.00,,---,0.00,VWS V14.00,2013-06-22 20:45:00,
2013-06-22 16:50:00,83.5,65.7,30.08,East,96,0.0,3.0,55,0.00,,---,0.00,VWS V14.00,2013-06-22 20:50:00,
2013-06-22 16:55:00,83.6,63.6,30.08,SSW,209,0.0,3.0,51,0.00,,---,0.00,VWS V14.00,2013-06-22 20:55:00,
2013-06-22 17:00:00,83.8,66.4,30.08,SSW,209,0.0,3.0,56,0.00,,---,0.00,VWS V14.00,2013-06-22 21:00:00,
2013-06-22 17:05:00,83.7,66.3,30.08,SSW,209,0.0,3.0,56,0.00,,---,0.00,VWS V14.00,2013-06-22 21:05:00,
2013-06-22 17:10:00,83.7,66.9,30.08,SSW,209,0.0,1.0,57,0.00,,---,0.00,VWS V14.00,2013-06-22 21:10:00,
2013-06-22 17:15:00,83.4,66.1,30.08,SSW,209,0.0,1.0,56,0.00,,---,0.00,VWS V14.00,2013-06-22 21:15:00,
2013-06-22 17:20:00,83.5,64.6,30.07,SSW,209,0.0,1.0,53,0.00,,---,0.00,VWS V14.00,2013-06-22 21:20:00,
2013-06-22 17:25:00,83.7,64.8,30.07,ESE,122,0.0,1.0,53,0.00,,---,0.00,VWS V14.00,2013-06-22 21:25:00,
2013-06-22 17:30:00,83.8,65.4,30.08,ESE,123,0.0,1.0,54,0.00,,---,0.00,VWS V14.00,2013-06-22 21:30:00,
2013-06-22 17:35:00,83.7,64.2,30.08,ESE,123,0.0,1.0,52,0.00,,---,0.00,VWS V14.00,2013-06-22 21:35:00,
2013-06-22 17:40:00,83.5,64.6,30.07,ESE,123,0.0,0.0,53,0.00,,---,0.00,VWS V14.00,2013-06-22 21:40:00,
2013-06-22 17:45:00,83.0,63.6,30.07,ESE,122,2.0,2.0,52,0.00,,---,0.00,VWS V14.00,2013-06-22 21:45:00,
2013-06-22 17:50:00,82.2,63.4,30.08,ESE,123,0.0,2.0,53,0.00,,---,0.00,VWS V14.00,2013-06-22 21:50:00,
2013-06-22 17:55:00,81.4,63.7,30.08,ESE,123,0.0,2.0,55,0.00,,---,0.00,VWS V14.00,2013-06-22 21:55:00,
2013-06-22 18:00:00,80.6,64.0,30.08,ESE,122,0.0,2.0,57,0.00,,---,0.00,VWS V14.00,2013-06-22 22:00:00,
2013-06-22 18:05:00,79.9,63.8,30.08,ESE,122,1.0,2.0,58,0.00,,---,0.00,VWS V14.00,2013-06-22 22:05:00,
2013-06-22 18:10:00,79.0,63.0,30.08,ESE,123,0.0,0.0,58,0.00,,---,0.00,VWS V14.00,2013-06-22 22:10:00,
2013-06-22 18:15:00,78.4,62.4,30.08,ESE,123,0.0,1.0,58,0.00,,---,0.00,VWS V14.00,2013-06-22 22:15:00,
2013-06-22 18:20:00,77.7,62.2,30.08,ESE,122,0.0,1.0,59,0.00,,---,0.00,VWS V14.00,2013-06-22 22:20:00,
2013-06-22 18:25:00,77.1,64.0,30.08,ESE,123,0.0,1.0,64,0.00,,---,0.00,VWS V14.00,2013-06-22 22:25:00,
2013-06-22 18:30:00,76.6,64.0,30.08,ESE,123,0.0,1.0,65,0.00,,---,0.00,VWS V14.00,2013-06-22 22:30:00,
2013-06-22 18:35:00,76.1,64.4,30.08,ESE,122,0.0,1.0,67,0.00,,---,0.00,VWS V14.00,2013-06-22 22:35:00,
2013-06-22 18:40:00,75.5,63.8,30.08,ESE,123,0.0,0.0,67,0.00,,---,0.00,VWS V14.00,2013-06-22 22:40:00,
2013-06-22 18:45:00,75.0,63.3,30.08,ESE,123,0.0,1.0,67,0.00,,---,0.00,VWS V14.00,2013-06-22 22:45:00,
2013-06-22 18:50:00,74.6,63.8,30.08,ESE,123,0.0,1.0,69,0.00,,---,0.00,VWS V14.00,2013-06-22 22:50:00,
2013-06-22 18:55:00,74.3,63.1,30.08,ESE,123,0.0,1.0,68,0.00,,---,0.00,VWS V14.00,2013-06-22 22:55:00,
2013-06-22 19:00:00,74.1,63.3,30.08,ESE,122,0.0,1.0,69,0.00,,---,0.00,VWS V14.00,2013-06-22 23:00:00,
2013-06-22 19:05:00,73.8,63.8,30.08,ESE,122,0.0,1.0,71,0.00,,---,0.00,VWS V14.00,2013-06-22 23:05:00,
2013-06-22 19:10:00,73.5,63.5,30.08,ESE,122,0.0,1.0,71,0.00,,---,0.00,VWS V14.00,2013-06-22 23:10:00,
2013-06-22 19:15:00,73.4,63.0,30.09,ESE,123,0.0,1.0,70,0.00,,---,0.00,VWS V14.00,2013-06-22 23:15:00,
2013-06-22 19:20:00,73.3,62.5,30.09,ESE,123,1.0,1.0,69,0.00,,---,0.00,VWS V14.00,2013-06-22 23:20:00,
2013-06-22 19:25:00,73.4,63.0,30.09,ESE,123,0.0,1.0,70,0.00,,---,0.00,VWS V14.00,2013-06-22 23:25:00,
2013-06-22 19:30:00,73.5,63.5,30.08,ESE,123,0.0,1.0,71,0.00,,---,0.00,VWS V14.00,2013-06-22 23:30:00,
2013-06-22 19:35:00,73.6,64.4,30.08,ESE,123,0.0,1.0,73,0.00,,---,0.00,VWS V14.00,2013-06-22 23:35:00,
2013-06-22 19:40:00,73.7,64.5,30.08,ESE,123,0.0,0.0,73,0.00,,---,0.00,VWS V14.00,2013-06-22 23:40:00,
2013-06-22 19:45:00,73.6,64.0,30.09,ESE,123,0.0,0.0,72,0.00,,---,0.00,VWS V14.00,2013-06-22 23:45:00,
2013-06-22 19:50:00,73.6,64.8,30.08,ESE,123,0.0,1.0,74,0.00,,---,0.00,VWS V14.00,2013-06-22 23:50:00,
2013-06-22 19:55:00,73.5,64.7,30.08,ESE,119,0.0,3.0,74,0.00,,---,0.00,VWS V14.00,2013-06-22 23:55:00,
2013-06-22 20:00:00,73.6,64.4,30.09,SSW,211,0.0,3.0,73,0.00,,---,0.00,VWS V14.00,2013-06-23 00:00:00,
2013-06-22 20:05:00,73.7,64.9,30.09,SSW,193,0.0,4.0,74,0.00,,---,0.00,VWS V14.00,2013-06-23 00:05:00,
2013-06-22 20:10:00,73.8,65.0,30.08,SSW,192,0.0,0.0,74,0.00,,---,0.00,VWS V14.00,2013-06-23 00:10:00,
2013-06-22 20:15:00,73.9,65.1,30.08,SSW,196,0.0,1.0,74,0.00,,---,0.00,VWS V14.00,2013-06-23 00:15:00,
2013-06-22 20:20:00,74.0,65.2,30.08,SSW,194,0.0,1.0,74,0.00,,---,0.00,VWS V14.00,2013-06-23 00:20:00,
2013-06-22 20:25:00,74.0,65.2,30.08,South,181,0.0,7.0,74,0.00,,---,0.00,VWS V14.00,2013-06-23 00:25:00,
2013-06-22 20:30:00,74.1,65.3,30.08,South,189,0.0,7.0,74,0.00,,---,0.00,VWS V14.00,2013-06-23 00:30:00,
2013-06-22 20:35:00,74.1,65.3,30.08,South,189,0.0,7.0,74,0.00,,---,0.00,VWS V14.00,2013-06-23 00:35:00,
2013-06-22 20:40:00,74.1,65.3,30.08,South,188,0.0,0.0,74,0.00,,---,0.00,VWS V14.00,2013-06-23 00:40:00,
2013-06-22 20:45:00,74.0,65.2,30.09,South,190,0.0,2.0,74,0.00,,---,0.00,VWS V14.00,2013-06-23 00:45:00,
2013-06-22 20:50:00,73.9,65.1,30.09,South,190,0.0,2.0,74,0.00,,---,0.00,VWS V14.00,2013-06-23 00:50:00,
2013-06-22 20:55:00,73.6,63.6,30.09,South,186,0.0,3.0,71,0.00,,---,0.00,VWS V14.00,2013-06-23 00:55:00,
2013-06-22 21:00:00,73.4,63.8,30.10,SW,236,0.0,3.0,72,0.00,,---,0.00,VWS V14.00,2013-06-23 01:00:00,
2013-06-22 21:05:00,73.2,62.8,30.11,SW,232,0.0,3.0,70,0.00,,---,0.00,VWS V14.00,2013-06-23 01:05:00,
2013-06-22 21:10:00,73.0,62.7,30.09,SW,234,0.0,1.0,70,0.00,,---,0.00,VWS V14.00,2013-06-23 01:10:00,
2013-06-22 21:15:00,72.7,62.8,30.09,WSW,248,0.0,3.0,71,0.00,,---,0.00,VWS V14.00,2013-06-23 01:15:00,
2013-06-22 21:20:00,72.5,62.6,30.10,WSW,247,0.0,3.0,71,0.00,,---,0.00,VWS V14.00,2013-06-23 01:20:00,
2013-06-22 21:25:00,72.2,62.7,30.10,WSW,256,0.0,3.0,72,0.00,,---,0.00,VWS V14.00,2013-06-23 01:25:00,
2013-06-22 21:30:00,72.1,63.0,30.10,WSW,256,0.0,3.0,73,0.00,,---,0.00,VWS V14.00,2013-06-23 01:30:00,
2013-06-22 21:35:00,71.9,62.8,30.10,WSW,256,0.0,3.0,73,0.00,,---,0.00,VWS V14.00,2013-06-23 01:35:00,
2013-06-22 21:40:00,71.7,63.0,30.11,WSW,256,0.0,0.0,74,0.00,,---,0.00,VWS V14.00,2013-06-23 01:40:00,
2013-06-22 21:45:00,71.5,62.8,30.11,WSW,256,0.0,0.0,74,0.00,,---,0.00,VWS V14.00,2013-06-23 01:45:00,
2013-06-22 21:50:00,71.3,63.0,30.12,WSW,256,0.0,0.0,75,0.00,,---,0.00,VWS V14.00,2013-06-23 01:50:00,
2013-06-22 21:55:00,71.2,62.9,30.12,WSW,256,0.0,0.0,75,0.00,,---,0.00,VWS V14.00,2013-06-23 01:55:00,
2013-06-22 22:00:00,71.0,62.7,30.13,WSW,256,0.0,0.0,75,0.00,,---,0.00,VWS V14.00,2013-06-23 02:00:00,
2013-06-22 22:05:00,70.9,62.6,30.13,WSW,256,0.0,0.0,75,0.00,,---,0.00,VWS V14.00,2013-06-23 02:05:00,
2013-06-22 22:10:00,70.8,62.9,30.12,WSW,256,0.0,0.0,76,0.00,,---,0.00,VWS V14.00,2013-06-23 02:10:00,
2013-06-22 22:15:00,70.6,62.7,30.12,WSW,256,0.0,0.0,76,0.00,,---,0.00,VWS V14.00,2013-06-23 02:15:00,
2013-06-22 22:20:00,70.5,63.0,30.13,WSW,256,0.0,0.0,77,0.00,,---,0.00,VWS V14.00,2013-06-23 02:20:00,
2013-06-22 22:25:00,70.3,62.8,30.13,WSW,256,0.0,0.0,77,0.00,,---,0.00,VWS V14.00,2013-06-23 02:25:00,
2013-06-22 22:30:00,70.2,62.7,30.13,WSW,256,0.0,0.0,77,0.00,,---,0.00,VWS V14.00,2013-06-23 02:30:00,
2013-06-22 22:35:00,70.2,62.7,30.13,WSW,256,0.0,0.0,77,0.00,,---,0.00,VWS V14.00,2013-06-23 02:35:00,
2013-06-22 22:40:00,70.1,62.9,30.13,WSW,256,0.0,0.0,78,0.00,,---,0.00,VWS V14.00,2013-06-23 02:40:00,
2013-06-22 22:45:00,70.0,62.8,30.14,WSW,256,0.0,0.0,78,0.00,,---,0.00,VWS V14.00,2013-06-23 02:45:00,
2013-06-22 22:50:00,70.0,62.8,30.13,WSW,256,0.0,0.0,78,0.00,,---,0.00,VWS V14.00,2013-06-23 02:50:00,
2013-06-22 22:55:00,69.9,63.5,30.13,WSW,256,0.0,0.0,80,0.00,,---,0.00,VWS V14.00,2013-06-23 02:55:00,
2013-06-22 23:00:00,69.9,63.1,30.14,WSW,256,0.0,0.0,79,0.00,,---,0.00,VWS V14.00,2013-06-23 03:00:00,
2013-06-22 23:05:00,69.8,63.0,30.14,WSW,256,0.0,0.0,79,0.00,,---,0.00,VWS V14.00,2013-06-23 03:05:00,
2013-06-22 23:10:00,69.7,63.3,30.13,WSW,256,0.0,0.0,80,0.00,,---,0.00,VWS V14.00,2013-06-23 03:10:00,
2013-06-22 23:15:00,69.6,63.2,30.13,WSW,256,0.0,0.0,80,0.00,,---,0.00,VWS V14.00,2013-06-23 03:15:00,
2013-06-22 23:20:00,69.5,63.1,30.14,WSW,256,0.0,0.0,80,0.00,,---,0.00,VWS V14.00,2013-06-23 03:20:00,
2013-06-22 23:25:00,69.3,62.9,30.14,WSW,256,0.0,0.0,80,0.00,,---,0.00,VWS V14.00,2013-06-23 03:25:00,
2013-06-22 23:30:00,69.2,62.8,30.14,WSW,256,0.0,0.0,80,0.00,,---,0.00,VWS V14.00,2013-06-23 03:30:00,
2013-06-22 23:35:00,69.1,63.0,30.14,WSW,256,0.0,0.0,81,0.00,,---,0.00,VWS V14.00,2013-06-23 03:35:00,
2013-06-22 23:40:00,69.0,62.9,30.13,WSW,256,0.0,0.0,81,0.00,,---,0.00,VWS V14.00,2013-06-23 03:40:00,
2013-06-22 23:45:00,68.9,63.2,30.14,WSW,256,0.0,0.0,82,0.00,,---,0.00,VWS V14.00,2013-06-23 03:45:00,
2013-06-22 23:50:00,68.8,63.1,30.14,WSW,256,0.0,0.0,82,0.00,,---,0.00,VWS V14.00,2013-06-23 03:50:00,
2013-06-22 23:55:00,68.8,62.7,30.14,WSW,256,0.0,0.0,81,0.00,,---,0.00,VWS V14.00,2013-06-23 03:55:00,